Pikeville, NC

6:34 PM EST on February 27, 2017 (GMT -0500)
Goldsboro-Wayne Municipal

Weather History for KGWW - December, 2013

Change the Weather History Date:

Tuesday, December 3, 2013

  Actual Average (KGSB) Record (KGSB)
Temperature  
Mean Temperature 46 °F -  
Max Temperature 63 °F 58 °F 77 °F (1998)
Min Temperature 31 °F 38 °F 26 °F (2008)
Degree Days  
Heating Degree Days 18    
Moisture  
Dew Point 42 °F    
Average Humidity 84    
Maximum Humidity 100    
Minimum Humidity 49    
Precipitation  
Precipitation 0.00 in - - ()
Sea Level Pressure  
Sea Level Pressure 29.96 in    
Wind  
Wind Speed 1 mph (South)    
Max Wind Speed 10 mph    
Max Gust Speed -    
Visibility 8 miles    
Events Rain    
Averages and records for this station are not official NWS values.
T = Trace of Precipitation, MM = Missing Value Source: NWS Daily Summary

Daily Weather History Graph

Daily Weather History Graph

Search for Another Location

Airport or City:

Trip Planner

Search our weather history database for the weather conditions in past years. The results will help you decide how hot, cold, wet, or windy it might be!

Date:

Astronomy

Dec. 03, 2013 Rise Set
Actual Time 7:04 AM EST 4:58 PM EST
Civil Twilight 6:36 AM EST 5:26 PM EST
Nautical Twilight 6:05 AM EST 5:58 PM EST
Astronomical Twilight 5:34 AM EST 6:29 PM EST
Moon 7:32 AM EST (12/3) 5:59 PM EST (12/3)
Length of Visible Light 10h 50m
Length of Day
9h 54m
New Moon, 1% of the Moon is Illuminated
Dec 3
New Moon
Dec 9
First Quarter
Dec 17
Full
Dec 25
Last Quarter
Jan 1
New

Hourly Weather History & Observations

Time (EST) Temp. Windchill Dew Point Humidity Pressure Visibility Wind Dir Wind Speed Gust Speed Precip Events Conditions
12:15 AM 36.0 °F - 36.0 °F 100% 29.89 in 5.0 mi Calm Calm - N/A   Clear
12:35 AM 35.4 °F - 35.4 °F 100% 29.88 in 4.0 mi Calm Calm - N/A   Clear
12:55 AM 34.9 °F - 34.9 °F 100% 29.88 in 5.0 mi Calm Calm - N/A   Clear
1:15 AM 35.8 °F - 35.8 °F 100% 29.88 in 7.0 mi Calm Calm - N/A   Clear
1:35 AM 35.1 °F - 35.1 °F 100% 29.90 in 7.0 mi Calm Calm - N/A   Clear
1:55 AM 35.6 °F - 35.6 °F 100% 29.90 in 7.0 mi Calm Calm - N/A   Clear
2:15 AM 35.1 °F - 35.1 °F 100% 29.91 in 7.0 mi Calm Calm - N/A   Clear
2:35 AM 34.7 °F - 34.7 °F 100% 29.91 in 7.0 mi Calm Calm - N/A   Clear
2:55 AM 34.3 °F - 34.3 °F 100% 29.91 in 7.0 mi Calm Calm - N/A   Clear
3:15 AM 33.3 °F 30.2 °F 33.3 °F 100% 29.92 in 7.0 mi WSW 3.5 mph - N/A   Clear
3:35 AM 34.7 °F - 34.7 °F 100% 29.91 in 7.0 mi Calm Calm - N/A   Clear
3:55 AM 34.2 °F - 34.2 °F 100% 29.91 in 5.0 mi Calm Calm - N/A   Clear
4:15 AM 33.8 °F - 33.8 °F 100% 29.90 in 5.0 mi Calm Calm - N/A   Clear
4:35 AM 33.1 °F - 33.1 °F 100% 29.90 in 4.0 mi Calm Calm - N/A   Clear
4:55 AM 32.7 °F - 32.7 °F 100% 29.90 in 4.0 mi Calm Calm - N/A   Clear
5:15 AM 32.9 °F - 32.9 °F 100% 29.91 in 4.0 mi Calm Calm - N/A   Clear
5:35 AM 32.7 °F - 32.7 °F 100% 29.91 in 3.0 mi Calm Calm - N/A   Clear
5:55 AM 32.0 °F - 32.0 °F 100% 29.93 in 5.0 mi Calm Calm - N/A   Clear
6:15 AM 32.2 °F - 32.2 °F 100% 29.93 in 7.0 mi Calm Calm - N/A   Clear
6:35 AM 31.6 °F - 31.6 °F 100% 29.93 in 3.0 mi Calm Calm - N/A   Clear
6:55 AM 31.8 °F - 31.8 °F 100% 29.95 in 7.0 mi Calm Calm - N/A   Clear
7:15 AM 32.0 °F - 32.0 °F 100% 29.95 in 7.0 mi Calm Calm - N/A   Clear
7:35 AM 32.2 °F 27.7 °F 32.2 °F 100% 29.96 in 5.0 mi SW 4.6 mph - N/A   Clear
7:55 AM 34.3 °F - 34.3 °F 100% 29.97 in 4.0 mi Calm Calm - N/A   Clear
8:15 AM 36.7 °F - 36.7 °F 100% 29.97 in 5.0 mi Calm Calm - N/A   Clear
8:35 AM 39.4 °F - 39.4 °F 100% 29.97 in 7.0 mi Calm Calm - N/A   Clear
8:55 AM 41.9 °F - 40.8 °F 96% 29.97 in 10.0 mi Calm Calm - N/A   Clear
9:15 AM 43.9 °F - 41.9 °F 93% 29.98 in 10.0 mi Calm Calm - N/A   Clear
9:35 AM 46.6 °F - 41.9 °F 84% 29.98 in 10.0 mi Calm Calm - N/A   Clear
9:55 AM 48.4 °F - 42.1 °F 79% 29.98 in 10.0 mi Calm Calm - N/A   Clear
10:15 AM 51.6 °F - 41.0 °F 67% 29.99 in 10.0 mi SSE 3.5 mph - N/A   Clear
10:35 AM 54.0 °F - 40.6 °F 61% 29.99 in 10.0 mi Calm Calm - N/A   Clear
10:55 AM 56.3 °F - 39.9 °F 54% 29.99 in 10.0 mi SSE 4.6 mph - N/A   Clear
11:15 AM 57.7 °F - 40.5 °F 53% 29.98 in 10.0 mi SSE 4.6 mph - N/A   Clear
11:35 AM 59.9 °F - 40.8 °F 49% 29.98 in 10.0 mi Calm Calm - N/A   Clear
11:55 AM 58.8 °F - 41.5 °F 53% 29.98 in 10.0 mi South 5.8 mph - N/A   Clear
12:15 PM 60.1 °F - 42.1 °F 51% 29.97 in 10.0 mi South 3.5 mph - N/A   Clear
12:35 PM 60.8 °F - 42.6 °F 51% 29.96 in 10.0 mi SSE 3.5 mph - N/A   Scattered Clouds
12:55 PM 62.1 °F - 43.0 °F 50% 29.96 in 10.0 mi SSE 4.6 mph - N/A   Mostly Cloudy
1:15 PM 61.9 °F - 43.2 °F 50% 29.95 in 10.0 mi South 6.9 mph - N/A   Overcast
1:35 PM 61.0 °F - 44.2 °F 54% 29.95 in 10.0 mi SSW 9.2 mph - N/A   Overcast
1:55 PM 59.2 °F - 44.1 °F 57% 29.95 in 10.0 mi SSW 5.8 mph - N/A   Overcast
2:15 PM 58.5 °F - 45.0 °F 61% 29.95 in 10.0 mi SSW 4.6 mph - N/A   Overcast
2:35 PM 58.1 °F - 44.6 °F 61% 29.96 in 10.0 mi SSW 10.4 mph - N/A   Overcast
2:55 PM 56.3 °F - 46.6 °F 70% 29.95 in 10.0 mi Calm Calm - N/A   Overcast
3:15 PM 56.7 °F - 47.5 °F 71% 29.96 in 10.0 mi Calm Calm - N/A   Overcast
3:35 PM 56.5 °F - 46.8 °F 70% 29.95 in 10.0 mi Calm Calm - N/A   Overcast
3:55 PM 56.7 °F - 46.4 °F 69% 29.97 in 10.0 mi Calm Calm - N/A   Overcast
4:15 PM 55.6 °F - 49.1 °F 79% 29.98 in 10.0 mi Calm Calm - N/A   Overcast
4:35 PM 55.2 °F - 49.6 °F 81% 29.98 in 10.0 mi Calm Calm - N/A   Overcast
4:55 PM 54.5 °F - 50.2 °F 85% 29.98 in 10.0 mi Calm Calm - N/A   Overcast
5:15 PM 53.6 °F - 49.8 °F 87% 29.99 in 10.0 mi Calm Calm - N/A   Overcast
5:35 PM 52.9 °F - 50.4 °F 91% 29.99 in 10.0 mi Calm Calm - N/A   Overcast
5:55 PM 53.2 °F - 50.0 °F 89% 29.99 in 10.0 mi Calm Calm - N/A   Overcast
6:15 PM 52.9 °F - 49.6 °F 89% 30.00 in 10.0 mi Calm Calm - N/A   Overcast
6:35 PM 52.7 °F - 50.0 °F 91% 30.00 in 10.0 mi Calm Calm - N/A   Overcast
6:55 PM 52.7 °F - 50.0 °F 91% 30.00 in 10.0 mi Calm Calm - N/A   Overcast
7:15 PM 51.8 °F - 50.0 °F 94% 30.00 in 10.0 mi Calm Calm - N/A   Mostly Cloudy
7:35 PM 51.3 °F - 48.7 °F 91% 30.00 in 10.0 mi Calm Calm - N/A   Scattered Clouds
7:55 PM 50.5 °F - 48.4 °F 92% 30.00 in 10.0 mi SSE 3.5 mph - N/A   Scattered Clouds
8:15 PM 51.1 °F - 47.7 °F 88% 30.00 in 10.0 mi SSE 3.5 mph - N/A   Mostly Cloudy
8:35 PM 51.8 °F - 46.8 °F 83% 30.00 in 10.0 mi SSE 3.5 mph - N/A   Scattered Clouds
8:55 PM 52.3 °F - 46.4 °F 80% 30.01 in 10.0 mi South 3.5 mph - N/A   Scattered Clouds
9:15 PM 52.5 °F - 46.4 °F 80% 30.01 in 10.0 mi South 3.5 mph - N/A   Overcast
9:35 PM 52.7 °F - 46.4 °F 79% 30.02 in 10.0 mi SSE 4.6 mph - N/A   Overcast
9:55 PM 52.7 °F - 46.0 °F 78% 30.01 in 10.0 mi SSE 3.5 mph - N/A   Overcast
10:15 PM 52.3 °F - 45.7 °F 78% 30.01 in 10.0 mi SSE 3.5 mph - N/A   Mostly Cloudy
10:35 PM 52.0 °F - 46.0 °F 80% 30.02 in 10.0 mi South 3.5 mph - N/A   Mostly Cloudy
10:55 PM 52.0 °F - 46.6 °F 82% 30.03 in 10.0 mi Calm Calm - N/A Rain Light Rain
11:15 PM 52.2 °F - 46.8 °F 82% 30.02 in 10.0 mi Calm Calm - N/A   Overcast
11:35 PM 51.8 °F - 47.3 °F 85% 30.03 in 10.0 mi Calm Calm - N/A   Overcast
11:55 PM 51.8 °F - 47.1 °F 84% 30.03 in 10.0 mi Calm Calm - N/A   Overcast